Wind_Speed
88 88 89 89 90 90 91 91 92 93 95 96 97 99 100 101 102 104 106 107 107 107 107 107 108 108 109 109 110 111 112 113 115 117 119 121 122 123 125 126 127 128 128 129 130 130 131 132 132 133 134 135 136 137 137 137 137 137 138 139 139 140 140 140 138 135 133 132 132 133 134 132 131 132 131 130 129 129 129 130 129 129 130 129 128
91 92 92 93 94 94 95 95 96 98 99 100 101 102 103 104 106 107 108 108 108 108 109 109 110 110 110 111 112 113 115 117 119 121 122 123 124 126 128 129 129 130 130 131 132 132 133 134 135 135 136 137 138 138 138 138 138 139 140 141 141 142 143 142 141 138 134 131 131 133 134 134 134 134 134 133 131 130 130 130 129 129 129 129 128
95 96 96 97 97 97 98 99 100 101 102 103 104 105 106 107 109 109 109 109 109 110 111 111 112 112 113 114 115 116 118 120 122 123 124 126 127 129 130 131 131 131 132 133 133 134 135 136 137 137 138 139 139 139 139 139 140 141 142 142 143 144 144 143 142 140 136 133 132 133 135 135 136 136 136 135 133 132 131 131 129 128 127 127 126
98 99 99 99 100 100 101 101 102 104 105 106 107 108 109 110 110 110 110 111 112 113 113 113 114 115 116 117 118 120 121 122 124 126 127 128 130 131 132 133 133 133 134 134 135 136 137 137 138 139 140 140 140 140 140 140 141 142 143 144 144 144 144 143 142 141 139 136 135 135 136 137 137 137 137 137 135 134 133 131 129 128 126 125 124
100 101 101 102 103 103 104 104 105 106 107 108 109 110 111 111 111 111 112 113 114 115 115 116 116 117 119 120 121 122 124 125 126 127 129 130 132 133 134 134 134 135 135 136 137 137 138 139 139 140 140 140 140 140 141 141 143 144 144 144 144 143 142 142 142 141 141 139 138 137 137 137 137 138 138 138 136 134 132 130 128 126 124 123 123
102 103 103 104 105 105 106 107 108 109 110 111 111 111 111 112 112 113 114 116 117 117 118 118 119 120 121 122 123 124 126 127 128 129 130 132 134 135 136 136 136 136 137 137 138 138 139 140 140 141 141 141 141 141 142 143 144 144 144 143 143 142 141 141 141 142 142 141 140 139 138 137 137 138 138 138 137 135 132 129 125 123 122 121 120
104 105 105 106 107 108 109 110 110 111 111 112 112 112 113 113 114 116 117 118 119 119 119 120 121 121 123 124 125 126 127 128 129 130 132 134 135 137 137 137 137 137 138 138 138 139 139 140 141 141 141 141 141 142 142 143 143 143 143 142 142 141 141 141 142 142 142 142 141 140 138 138 138 137 137 137 135 134 132 130 126 123 121 119 117
108 108 109 109 110 110 111 111 112 112 112 113 113 114 115 116 117 118 119 120 120 120 121 121 122 123 124 125 126 127 128 129 130 132 134 136 137 138 138 138 138 138 138 138 139 139 140 141 141 141 141 142 142 143 143 143 142 142 142 142 141 141 142 142 142 142 141 141 140 140 139 138 138 137 136 134 132 131 130 129 127 124 121 118 116
110 111 111 111 111 111 112 112 113 113 114 114 115 116 117 118 119 120 121 121 121 122 123 123 124 124 125 126 127 127 129 131 133 135 137 138 139 138 138 138 138 137 138 138 139 140 141 141 142 142 142 143 143 143 143 142 142 142 141 142 142 142 142 142 142 141 141 140 140 140 139 137 136 136 134 132 130 129 129 128 126 123 120 117 115
110 110 111 111 112 113 113 114 114 115 116 116 117 118 119 120 121 121 122 122 123 123 123 124 124 125 126 127 128 129 132 134 136 137 138 139 138 138 137 137 137 138 138 139 140 141 141 142 142 143 143 143 143 143 142 142 142 142 142 143 143 142 142 141 141 141 140 140 140 140 139 136 135 134 133 131 131 130 128 127 125 121 119 116 113
111 112 112 113 114 115 115 116 117 118 119 119 120 121 121 122 122 123 123 123 123 123 123 124 125 126 127 129 131 133 135 137 138 138 138 138 137 137 137 137 137 138 139 140 141 141 142 143 143 143 143 143 143 142 142 142 142 142 143 143 142 142 142 141 140 140 140 139 138 139 138 135 133 133 133 132 131 130 128 127 125 122 119 117 115
113 114 115 115 116 117 118 119 120 120 121 122 122 123 123 123 123 123 122 123 123 123 124 125 127 129 131 133 134 136 137 138 138 138 137 137 137 137 137 137 137 138 139 140 141 142 142 143 143 143 143 143 142 142 142 142 142 142 142 142 141 142 142 141 140 139 139 138 137 136 135 134 133 133 134 133 131 130 128 127 125 123 121 120 119
115 116 117 118 118 119 120 121 121 122 123 123 123 123 123 123 123 123 124 124 125 126 127 129 130 132 134 135 136 137 137 137 137 137 137 136 136 136 137 137 138 139 140 141 142 142 142 142 142 142 142 142 142 142 141 141 141 140 140 140 140 140 140 140 139 139 138 137 135 133 134 134 134 134 135 135 133 131 129 127 126 124 123 122 121
117 118 119 120 121 122 122 123 123 124 124 124 125 125 125 126 126 126 127 127 128 129 130 132 133 134 135 136 136 137 137 137 136 136 136 136 136 137 137 139 140 141 142 142 142 142 142 141 141 141 142 141 140 140 139 139 139 138 138 138 137 137 137 137 137 137 136 134 133 133 133 134 134 135 136 136 135 134 132 130 129 127 126 124 122
119 121 122 123 124 124 125 125 126 126 127 127 127 128 128 128 129 129 129 130 130 131 132 133 134 134 135 136 136 136 136 135 135 135 136 136 137 138 139 141 142 143 143 142 142 141 141 141 140 140 140 139 138 137 137 136 136 136 135 135 135 135 136 135 134 133 133 132 133 133 133 134 136 137 137 137 137 135 133 132 132 131 129 126 121
122 123 124 125 126 126 127 127 127 128 128 128 128 129 129 129 129 129 130 130 131 131 132 133 134 134 135 135 135 134 134 134 134 135 136 138 139 140 141 142 142 142 141 141 141 140 140 139 138 137 136 136 135 135 135 134 134 133 133 133 133 133 133 132 131 131 131 132 133 134 135 136 138 139 140 140 139 137 135 134 134 133 130 126 120
123 124 124 125 126 126 126 127 127 127 128 128 128 128 128 129 129 129 129 130 130 131 132 133 133 133 133 133 133 133 134 134 136 137 138 139 140 141 141 140 140 140 139 139 139 138 137 136 135 134 133 133 133 133 133 133 133 132 132 131 130 130 129 129 129 130 131 132 133 135 137 138 140 141 143 143 142 140 138 136 134 131 128 125 120
121 122 123 124 124 125 125 125 126 126 126 126 126 126 127 127 127 127 128 129 129 130 131 132 132 132 132 132 133 133 134 135 136 137 138 139 139 139 138 137 137 136 136 136 135 134 134 133 132 132 132 132 133 133 133 133 132 131 129 128 127 127 127 128 128 129 131 133 135 137 139 140 141 143 144 144 144 142 140 137 135 131 129 126 122
119 120 121 121 122 122 122 123 123 123 124 124 124 125 125 126 127 127 128 129 129 130 130 130 131 131 132 132 133 134 134 135 136 136 136 136 136 135 134 133 133 132 132 132 132 132 131 131 131 131 132 132 133 133 132 131 129 128 127 126 126 126 126 127 128 129 131 133 135 137 139 140 141 143 143 144 143 142 140 139 138 135 133 130 125
118 118 119 119 120 120 121 122 122 122 123 124 124 125 125 126 126 127 127 128 128 128 129 129 130 130 131 132 132 132 132 132 132 132 132 132 131 130 129 129 129 129 129 130 130 130 130 131 131 131 131 131 131 130 129 128 127 127 126 126 126 126 127 128 130 131 132 134 135 137 138 139 141 142 143 143 142 141 141 141 141 141 138 134 127
115 116 117 117 118 119 119 120 120 121 122 122 123 123 123 124 124 125 125 125 126 127 127 128 128 129 129 129 129 129 129 128 128 128 128 127 127 126 126 126 127 127 128 128 129 129 129 129 129 129 129 128 128 127 127 127 127 127 127 127 128 128 129 130 132 133 134 135 136 137 137 138 139 140 141 141 142 142 142 144 144 143 141 137 130
111 111 112 113 114 114 115 116 117 117 118 119 120 120 121 122 122 123 124 124 125 125 126 126 126 125 125 125 125 125 124 124 124 124 124 124 124 124 124 124 125 125 126 126 126 126 126 126 125 125 126 126 126 126 126 127 127 127 128 129 130 131 132 133 133 134 135 136 137 137 137 137 138 138 139 140 142 143 144 144 144 142 140 138 133
110 111 111 112 113 113 114 115 116 117 118 119 120 120 121 122 122 123 123 123 123 123 122 122 122 121 121 121 121 121 121 121 121 122 122 122 121 121 121 122 122 122 122 122 122 122 121 121 122 123 124 125 126 126 127 128 128 129 130 131 132 133 134 135 135 136 136 137 137 137 137 137 137 137 139 140 141 143 144 143 141 139 137 136 132
112 113 113 114 114 115 116 117 117 118 119 119 120 120 120 121 121 121 120 120 119 118 118 118 117 117 117 117 117 117 118 118 119 119 119 118 118 118 118 118 118 118 118 117 118 118 118 120 121 123 124 125 127 128 129 130 131 131 132 133 134 135 136 136 137 137 137 137 137 137 137 138 138 139 139 140 142 143 143 141 139 137 135 134 130
113 114 114 115 115 116 116 116 117 117 117 117 117 117 117 117 116 116 115 115 114 113 113 113 113 113 113 114 114 114 115 115 115 115 115 114 114 113 113 114 114 114 114 115 116 117 118 120 122 123 125 126 128 130 131 132 133 134 134 135 136 136 137 137 137 137 138 138 138 138 139 139 140 141 141 142 143 142 141 138 136 134 133 131 127
113 113 114 114 115 115 114 114 114 114 114 113 113 112 112 111 110 110 109 109 109 109 109 109 110 110 111 111 111 111 111 112 111 111 111 110 110 109 110 110 111 112 113 114 116 117 119 120 122 124 126 128 130 131 133 134 135 136 136 136 137 137 137 137 138 138 139 139 139 139 140 141 142 142 142 143 143 141 138 135 132 130 128 126 122
110 110 110 110 110 109 109 109 108 108 108 107 107 106 105 105 104 104 104 105 105 106 107 107 107 108 107 107 107 107 108 108 107 107 107 106 106 107 108 109 111 112 114 115 116 118 119 121 123 125 127 128 131 133 134 135 136 136 136 137 137 137 137 138 139 139 140 140 140 141 142 142 142 142 143 143 142 139 135 132 129 125 123 120 117
104 104 104 104 104 103 103 103 103 103 103 102 102 102 102 102 102 102 103 104 104 105 105 105 105 104 103 103 103 103 104 104 104 104 104 104 105 106 108 110 112 113 115 116 117 118 120 122 124 126 127 129 131 133 134 135 136 136 136 136 136 136 137 138 140 140 141 141 141 142 142 143 143 142 142 141 138 136 133 130 126 122 118 115 113
99 99 99 99 99 99 99 99 99 100 100 100 100 100 100 101 101 102 102 103 103 103 102 101 100 99 99 99 99 100 101 101 102 103 103 104 106 108 109 111 113 115 116 117 118 119 121 123 125 126 128 130 131 133 134 135 135 135 135 135 135 136 137 138 139 140 141 141 142 142 142 142 142 141 139 137 135 132 130 127 122 118 113 111 110
96 96 96 97 97 97 97 98 98 98 98 98 99 99 99 100 100 101 101 101 100 99 98 96 96 95 96 97 98 99 100 101 103 104 105 107 108 110 111 113 114 116 117 119 119 121 122 124 125 127 128 130 131 132 133 133 133 133 133 134 134 135 136 137 139 140 141 141 142 142 142 142 141 139 136 133 131 129 126 123 119 114 110 108 107
94 95 95 96 96 96 97 97 97 98 98 98 98 99 99 100 100 100 99 97 96 95 94 93 94 95 96 98 100 101 102 104 106 107 108 109 110 111 112 114 115 117 119 120 120 122 123 124 125 127 129 130 131 131 131 131 131 132 132 133 134 134 136 137 139 140 141 141 142 142 142 141 139 136 133 130 127 125 122 119 116 112 109 106 103
93 94 94 95 95 95 96 96 96 97 97 98 98 98 98 98 97 96 95 94 93 92 93 94 96 97 99 101 102 104 105 107 108 109 109 111 112 112 113 114 116 118 120 120 121 122 123 124 126 128 129 130 130 131 131 131 131 132 132 133 134 135 136 138 140 141 141 141 141 141 140 138 136 133 130 127 124 121 118 115 113 110 107 104 100
93 94 94 95 95 96 96 96 96 96 96 96 96 95 94 93 93 92 92 92 93 94 96 97 99 100 101 103 104 105 106 108 109 110 111 112 113 114 115 116 118 119 121 121 122 123 124 126 127 128 130 130 130 131 131 131 131 132 133 134 135 136 137 139 140 141 141 141 141 140 138 135 133 130 127 124 120 117 115 113 111 109 105 101 97
94 95 95 95 95 95 95 95 95 95 94 94 93 92 91 91 91 92 93 94 95 97 99 100 101 102 103 104 105 106 108 109 110 111 112 114 115 116 117 118 119 121 122 122 123 124 126 127 128 129 130 130 131 131 131 131 132 133 134 135 136 137 139 140 141 141 141 140 139 138 135 132 129 127 123 119 117 114 113 112 110 107 103 99 94
94 94 94 94 94 93 93 93 93 92 92 91 90 90 90 91 93 94 95 97 98 99 101 102 103 104 105 106 107 109 110 111 112 113 115 116 117 118 119 120 121 122 123 124 125 126 127 128 129 130 130 131 131 131 132 133 133 134 135 136 137 138 139 140 141 141 140 139 137 135 132 129 126 122 119 115 114 113 112 110 108 104 100 95 91
92 92 92 93 93 93 92 92 92 91 91 91 91 91 92 94 96 97 99 100 100 101 103 104 105 107 107 109 110 112 112 113 114 115 116 118 119 120 121 122 123 124 125 126 127 128 128 129 129 130 130 131 132 132 133 133 134 135 136 137 138 139 139 140 140 139 137 136 134 131 128 126 122 118 114 112 112 112 111 109 106 102 97 93 89
89 90 90 90 91 91 91 91 91 92 92 93 94 95 96 98 99 100 101 102 103 104 105 106 108 109 110 111 113 114 114 115 115 117 118 120 121 121 122 124 125 126 127 128 129 129 129 129 130 130 131 131 132 133 133 134 135 136 136 137 138 138 139 138 137 136 134 133 131 128 125 122 118 114 111 111 111 111 109 107 103 99 95 91 87
87 88 88 89 90 90 91 92 93 94 95 96 97 98 99 100 101 102 103 104 105 106 107 108 110 111 112 114 115 116 116 116 117 118 120 121 122 123 124 125 127 128 128 129 130 130 130 129 129 130 130 131 132 133 134 134 135 136 136 137 137 137 137 136 134 133 132 130 127 124 121 118 115 112 110 110 110 109 107 104 100 97 93 89 86
88 89 89 90 91 91 92 93 95 96 97 98 99 100 101 102 103 104 105 106 107 108 109 111 112 113 114 116 117 118 118 118 119 120 122 123 123 124 125 126 128 129 129 130 130 130 130 129 129 130 131 132 133 134 134 135 135 135 136 136 136 135 134 133 132 130 129 127 123 119 117 115 113 111 110 110 109 107 104 100 97 94 91 88 84
89 90 91 91 92 93 94 95 96 97 99 100 101 102 103 104 105 106 107 108 109 110 112 113 114 115 117 118 120 120 120 120 121 122 122 123 124 125 126 127 129 130 131 131 131 130 130 130 130 131 132 133 134 134 134 135 135 135 135 134 133 132 131 130 129 128 126 122 118 115 113 112 112 111 110 109 108 105 101 98 95 92 89 86 83
92 93 93 94 95 96 96 97 98 100 101 102 103 104 105 106 107 108 109 110 112 113 115 116 117 118 120 121 122 122 122 121 122 122 123 124 125 126 127 128 129 130 131 131 131 131 131 131 131 132 133 134 134 134 134 134 134 133 133 132 131 130 129 127 126 124 122 118 115 112 112 111 111 110 109 108 106 103 99 95 92 90 87 84 82
95 96 97 97 98 99 99 101 102 103 104 105 106 107 108 109 110 111 112 114 115 117 118 119 120 121 122 123 124 123 123 122 123 123 124 125 126 127 128 129 130 130 131 131 132 132 133 133 133 134 134 135 135 134 133 133 132 132 131 130 129 128 126 124 123 121 117 115 113 111 111 111 110 109 108 107 104 100 97 93 90 88 85 83 80
98 99 100 101 102 102 103 104 105 106 107 108 109 110 111 112 113 115 116 117 119 120 121 122 123 124 124 125 125 124 124 125 125 125 126 126 127 128 129 129 130 130 131 132 133 133 134 134 134 135 135 135 134 133 131 130 130 130 129 129 128 126 124 122 120 117 115 113 112 111 111 110 109 107 106 105 102 98 94 92 89 86 84 82 79
102 103 104 104 105 106 107 108 109 110 110 111 112 113 114 116 117 119 120 121 122 123 124 125 125 126 126 126 126 126 127 127 127 128 127 127 127 128 129 130 130 131 132 132 133 133 134 134 134 135 135 134 133 131 130 129 129 128 128 127 126 123 121 119 117 115 113 112 112 111 110 109 108 106 104 102 99 96 93 90 87 85 82 80 78
105 106 107 107 108 109 110 111 112 113 114 115 116 117 119 120 122 123 124 125 125 126 127 127 127 128 128 128 128 128 128 128 129 129 128 128 128 129 129 130 131 131 132 132 133 133 133 133 133 133 133 133 132 130 129 128 128 127 126 125 123 121 119 117 115 114 113 112 111 111 110 108 106 104 101 99 96 93 91 89 86 83 81 79 76
109 110 110 111 112 112 113 114 116 117 118 119 120 122 123 124 125 126 127 127 128 128 129 129 129 129 130 130 130 129 129 129 129 129 129 128 129 129 129 130 130 131 131 131 131 130 130 130 131 132 132 132 131 130 128 128 127 126 124 122 120 118 117 116 115 114 113 112 111 110 109 107 104 101 98 96 93 91 89 87 85 82 80 77 74
112 113 113 114 115 116 117 118 120 121 122 123 124 125 126 127 128 128 129 129 129 129 129 130 130 130 130 130 130 129 129 129 129 128 128 128 128 128 128 129 129 129 129 129 129 129 129 129 130 131 132 132 131 129 128 127 126 124 122 120 118 117 116 116 115 114 113 112 111 110 108 105 101 98 95 93 91 89 87 86 84 81 79 75 73
115 115 116 117 118 119 121 122 123 124 125 126 127 127 128 128 129 129 129 129 130 129 129 129 129 129 129 129 128 128 128 128 128 127 127 127 127 127 127 127 127 128 128 128 128 128 129 129 130 130 131 131 130 128 127 126 124 122 120 118 117 117 116 116 115 114 113 112 110 108 105 102 98 95 93 91 89 87 85 84 82 80 77 74 71
117 118 119 120 121 122 123 124 125 126 126 127 128 128 128 129 129 129 129 129 129 129 128 128 128 128 127 127 126 126 126 126 125 125 125 126 126 126 126 127 128 128 128 128 129 129 129 129 129 129 129 129 127 126 125 124 122 121 119 119 118 117 117 116 116 115 113 111 108 105 102 98 95 92 90 89 88 86 84 82 80 78 75 72 69
121 122 123 123 124 125 126 126 126 127 127 128 128 128 128 128 127 127 127 127 127 127 126 126 126 126 125 125 124 124 124 124 124 124 125 125 126 126 127 128 128 128 128 128 128 128 128 128 127 127 127 125 124 123 123 122 121 120 120 119 119 118 117 117 116 114 112 109 105 102 98 95 92 90 88 87 86 84 82 80 78 75 73 70 68
125 126 127 127 127 128 128 128 128 128 127 127 127 126 126 126 126 126 125 125 125 125 125 125 125 125 125 125 125 124 124 124 124 125 125 126 126 126 127 127 127 127 127 127 127 127 126 125 125 124 123 122 122 121 121 120 120 120 120 120 120 119 118 116 114 111 108 105 101 98 95 93 91 89 87 85 84 83 81 78 76 73 71 68 66
Wind_Direction
274 275 276 276 277 278 278 279 280 281 282 283 284 285 286 288 289 290 292 293 294 295 296 297 299 300 301 301 301 301 301 300 300 300 301 301 302 303 304 304 305 305 305 305 305 306 306 307 307 308 308 308 308 308 308 309 309 309 309 309 310 310 310 311 311 312 312 312 312 311 312 312 311 311 311 311 311 311 312 312 312 312 312 311 311
272 274 275 275 276 277 278 279 280 281 282 283 284 286 287 288 289 290 292 293 294 296 297 298 299 299 300 300 300 299 299 299 299 300 300 301 302 303 304 304 304 304 304 305 305 305 306 307 307 307 308 308 308 308 308 308 308 308 309 309 309 310 310 310 311 311 311 311 311 311 311 311 311 311 311 311 311 311 312 311 311 311 311 311 311
272 273 274 275 276 277 278 278 279 281 282 283 284 285 287 288 290 291 292 294 295 297 297 298 298 298 298 298 298 298 298 298 299 299 300 301 302 303 303 304 304 304 304 304 305 305 306 306 307 307 307 307 307 308 308 308 308 308 308 309 309 309 309 310 310 311 311 311 310 310 310 310 310 310 311 311 311 311 312 311 311 311 311 310 310
272 273 274 275 276 277 278 279 280 281 282 283 285 286 287 289 290 292 293 294 295 296 296 296 296 296 296 296 296 297 297 298 298 299 300 301 302 302 303 303 303 303 304 304 305 305 305 306 306 306 307 307 307 307 307 307 307 307 308 308 308 309 309 309 310 310 310 310 310 310 310 310 311 311 311 311 311 312 312 311 311 310 310 310 309
273 274 275 276 277 278 278 279 281 282 283 284 286 287 288 290 291 292 293 294 294 295 295 295 295 295 295 295 296 296 297 298 299 300 300 301 301 302 302 302 303 303 303 304 304 305 305 305 306 306 306 307 307 307 307 306 306 307 307 307 308 308 309 309 309 310 310 310 310 310 310 311 311 311 311 311 311 311 311 310 310 310 310 310 310
272 273 275 276 277 278 279 280 281 282 284 285 286 287 289 290 291 291 292 292 293 293 293 293 293 293 294 295 295 296 297 298 299 299 300 300 301 301 302 302 302 302 303 303 304 304 304 305 305 306 306 306 306 306 306 306 306 306 307 307 308 308 308 309 309 309 310 310 310 310 311 311 311 311 311 311 311 311 310 310 309 309 310 310 310
272 273 275 276 277 278 279 280 281 283 284 285 286 287 288 289 290 290 290 291 291 291 291 292 292 293 293 294 295 296 297 298 298 299 299 300 300 301 301 301 302 302 302 303 303 304 304 304 305 305 305 305 305 305 305 305 305 306 306 307 307 307 308 308 309 309 309 310 310 310 311 311 311 311 311 311 311 311 310 310 310 310 310 310 310
273 274 275 276 277 278 279 280 281 282 283 284 285 286 287 287 288 288 289 289 289 289 290 291 291 292 293 294 295 296 296 297 298 298 299 299 300 300 300 301 301 302 302 302 303 303 303 304 304 304 304 304 304 304 304 304 305 305 306 306 306 307 307 308 308 309 309 309 310 310 310 310 310 310 310 310 310 309 309 309 310 311 311 312 313
274 275 275 276 277 278 279 280 281 282 282 283 284 285 285 286 286 287 287 287 288 288 289 290 291 292 293 294 294 295 296 296 297 297 298 298 299 299 300 300 301 301 302 302 302 302 303 303 303 303 303 303 303 303 304 304 304 305 305 306 306 307 307 308 308 308 309 309 309 310 310 310 310 310 310 309 309 309 309 310 311 312 313 314 315
273 274 275 275 276 277 278 279 280 280 281 282 282 283 284 284 285 285 286 286 287 288 289 290 291 292 292 293 294 294 295 296 296 297 297 298 298 299 299 300 300 301 301 301 301 301 301 302 302 302 302 302 303 303 303 304 304 305 305 306 306 307 307 308 308 308 309 309 309 310 310 310 310 310 309 309 310 310 311 312 313 313 314 315 315
272 273 274 274 275 276 277 278 279 280 280 281 282 282 283 283 284 285 286 286 287 288 289 289 290 291 292 293 293 294 294 295 296 296 297 297 298 298 299 299 300 300 300 300 300 300 300 301 301 301 302 302 302 303 303 304 304 305 305 306 306 307 307 308 308 308 309 309 310 310 310 310 310 310 310 310 311 311 313 314 315 315 316 316 316
272 273 274 274 275 276 277 278 279 279 280 281 281 282 283 283 284 285 285 286 287 287 288 289 290 291 291 292 293 293 294 294 295 296 296 297 297 298 298 299 299 299 299 299 299 299 300 300 300 301 301 302 302 302 303 304 304 305 305 306 306 307 307 308 308 309 309 309 310 310 310 310 310 310 310 311 312 313 314 315 316 317 317 318 318
272 273 273 274 275 276 277 277 278 279 279 280 281 281 282 283 284 284 285 286 286 287 288 289 289 290 291 291 292 293 293 294 294 295 296 296 297 297 298 298 297 297 297 298 298 298 299 299 300 300 301 301 302 303 303 304 304 305 305 306 306 307 308 308 309 309 309 310 310 310 310 310 311 311 312 312 314 315 316 317 318 318 319 319 319
271 272 273 274 275 275 276 277 278 278 279 280 280 281 282 283 283 284 285 285 286 287 287 288 289 289 290 291 292 292 293 293 294 295 295 296 296 296 296 296 296 296 296 297 298 298 298 299 299 300 300 301 302 303 303 303 304 304 305 306 306 307 308 308 309 309 309 309 310 310 311 311 312 312 313 314 316 317 318 319 319 319 319 320 319
270 271 272 273 273 274 275 276 277 277 278 279 280 281 281 282 283 283 284 285 285 286 287 288 288 289 290 290 291 292 292 293 294 294 295 295 295 295 295 295 295 295 296 297 297 297 298 299 299 300 301 301 302 302 302 303 303 304 305 306 307 307 307 308 308 309 309 310 310 311 311 312 312 313 315 316 317 318 319 320 320 320 319 319 319
269 270 271 271 272 273 274 275 276 277 277 278 279 280 280 281 282 283 284 284 285 286 287 287 288 289 289 290 291 291 292 292 293 293 293 293 293 294 294 294 295 296 296 296 297 297 298 299 299 300 301 301 301 302 302 303 304 304 305 306 307 307 307 308 308 309 310 311 311 312 312 313 314 315 316 317 317 319 320 320 320 319 319 319 319
268 269 270 271 272 273 273 274 275 276 277 278 278 279 280 281 282 282 283 284 285 285 286 287 288 288 289 289 290 291 291 291 292 292 292 292 293 293 294 294 295 295 296 296 297 298 298 299 299 300 300 301 301 301 302 303 304 305 305 306 306 307 307 308 309 310 311 312 312 313 313 314 315 315 316 317 318 319 319 319 319 319 319 320 320
268 269 270 271 272 272 273 274 275 276 277 277 278 279 280 280 281 282 283 283 284 285 286 286 287 288 288 289 289 290 290 291 291 291 291 292 292 293 294 294 295 295 296 297 297 298 298 299 299 300 300 301 301 302 303 304 304 305 305 306 306 307 308 309 310 311 312 312 313 313 313 314 315 315 316 316 317 319 319 320 320 320 321 321 321
269 269 270 271 272 273 273 274 275 276 276 277 278 278 279 280 281 281 282 283 284 285 285 286 287 287 288 288 289 289 290 290 290 291 291 291 292 293 294 294 295 296 296 297 297 298 298 299 299 300 300 301 302 302 303 304 304 305 306 306 307 308 309 310 311 311 311 312 312 312 313 314 314 315 315 316 317 319 320 321 321 322 322 322 322
269 270 270 271 272 272 273 274 274 275 276 276 277 278 279 280 280 281 282 283 284 284 285 286 286 287 288 288 288 289 289 289 290 290 291 291 292 293 294 294 295 296 296 297 297 298 299 299 300 300 301 301 302 303 303 304 305 306 307 307 308 309 310 310 311 311 311 311 312 312 313 313 314 314 315 316 318 319 321 322 322 323 322 322 322
268 269 270 270 271 272 272 273 274 275 276 276 277 278 279 280 281 281 282 283 284 284 285 286 287 287 288 288 288 289 289 289 290 290 291 292 292 293 294 295 295 296 296 297 298 299 299 300 300 301 301 302 302 303 304 305 306 307 308 309 309 310 310 310 310 310 311 311 312 312 313 313 314 315 315 317 318 320 321 322 322 322 322 321 322
269 269 270 271 272 272 273 274 275 276 276 277 278 279 279 280 281 282 283 284 284 285 286 286 287 287 287 288 288 288 289 289 290 291 291 292 293 294 294 295 296 296 297 298 298 299 300 300 301 301 301 302 303 304 305 306 307 308 308 309 309 309 310 310 310 311 311 312 312 312 313 314 314 315 316 317 319 320 320 321 321 321 321 321 321
269 270 271 272 273 273 274 275 276 277 278 278 279 280 281 282 283 283 284 285 285 285 286 286 286 286 287 287 288 289 289 290 291 291 292 293 294 295 295 296 296 297 298 298 299 299 300 300 301 301 302 303 304 305 306 307 307 308 308 308 309 309 310 310 311 311 311 312 312 313 313 314 315 316 317 318 319 319 320 320 320 320 320 320 321
271 272 273 274 275 276 276 277 278 279 280 280 281 282 282 283 283 284 284 284 285 285 285 286 286 287 287 288 289 290 290 291 292 293 293 294 295 295 296 296 297 297 298 298 299 299 300 301 301 302 303 304 305 305 306 306 307 307 308 308 309 310 310 310 311 311 311 311 312 313 314 315 316 317 318 319 319 320 320 320 320 320 320 320 320
273 274 275 276 277 278 278 279 280 280 280 281 281 282 282 282 283 283 284 284 284 285 285 286 287 288 289 289 290 291 292 292 293 293 294 294 295 295 296 296 296 297 298 298 299 300 301 301 302 303 304 304 305 305 305 306 307 308 308 309 309 309 310 310 310 310 311 312 313 314 315 316 317 318 318 319 319 320 320 320 320 320 319 320 320
275 276 277 277 278 278 279 279 279 280 280 281 281 281 282 282 283 283 284 284 285 286 287 287 288 289 290 291 291 291 292 292 292 293 294 294 295 295 296 296 297 297 298 299 300 301 301 302 302 303 303 303 304 304 305 306 307 307 308 308 308 308 309 309 310 310 311 312 313 314 315 316 317 318 318 319 319 319 319 319 319 319 319 319 320
276 277 277 278 278 278 279 279 279 280 280 281 281 282 282 283 284 284 285 285 286 287 288 289 289 290 290 291 291 291 291 292 292 293 294 294 295 296 296 297 298 298 299 300 300 301 301 301 302 302 302 303 303 304 305 305 306 306 307 307 307 308 308 309 310 311 311 312 313 314 314 315 316 317 318 318 318 319 319 319 319 319 319 319 319
277 277 277 278 278 278 278 279 279 280 280 281 281 282 283 283 284 285 286 286 287 288 289 289 290 290 290 290 290 291 291 292 293 294 295 296 296 297 297 298 298 299 299 299 300 300 300 300 301 301 302 302 303 303 304 304 305 305 306 307 307 308 309 309 310 310 311 312 312 313 314 315 316 316 317 317 318 318 318 318 318 319 319 319 319
277 277 277 278 278 278 279 279 280 280 281 281 282 283 283 284 285 286 287 288 288 289 289 289 289 290 290 290 290 291 292 293 294 295 296 296 296 297 297 297 298 298 298 298 299 299 299 299 300 300 301 301 302 303 303 304 305 305 306 307 308 308 309 309 309 310 310 311 312 313 314 314 315 316 317 317 317 317 317 318 318 318 319 319 320
277 277 277 278 278 279 279 280 280 281 282 282 283 284 285 285 286 287 288 288 288 288 289 289 290 290 291 291 292 293 293 294 294 295 295 295 296 296 296 297 297 297 297 297 298 298 299 299 300 300 301 301 302 303 303 304 305 306 307 307 308 308 308 308 308 309 310 311 312 313 313 314 315 316 316 317 317 317 317 317 317 318 319 320 320
277 277 277 278 278 279 279 280 281 282 282 283 284 285 286 287 287 288 288 288 289 289 290 291 291 292 292 292 293 293 294 294 294 294 295 295 295 295 295 296 296 296 296 297 298 298 299 299 300 300 301 302 302 303 304 305 305 306 306 307 307 307 307 307 308 309 310 311 312 313 313 314 315 316 316 316 317 317 317 317 317 318 319 320 320
277 278 278 278 279 279 280 281 282 282 283 284 285 286 287 287 288 288 289 289 290 290 291 291 291 292 292 292 293 293 293 293 294 294 294 294 294 294 295 295 295 296 296 297 298 298 299 299 300 301 301 302 303 304 304 305 305 305 305 306 306 306 307 307 308 309 310 311 312 312 313 314 315 315 316 316 317 316 316 316 317 318 319 320 320
278 278 279 279 280 281 281 282 283 283 284 286 286 287 288 288 288 288 289 290 290 291 291 291 291 291 292 292 292 292 292 293 293 293 294 294 294 294 295 295 295 296 296 297 298 299 299 300 300 301 302 303 303 304 304 304 304 304 305 305 306 306 307 307 308 309 310 311 312 312 313 314 314 315 316 316 316 316 316 317 318 319 319 320 320
278 278 279 279 280 281 282 283 284 284 285 286 286 286 286 287 287 288 288 289 290 290 291 291 291 291 291 291 291 291 291 292 292 293 293 294 294 294 295 295 296 296 296 297 298 299 299 300 301 302 302 303 303 303 303 303 304 304 305 305 305 306 306 307 308 309 310 311 311 312 313 314 314 315 316 316 316 316 316 317 318 319 319 319 320
278 278 279 280 280 281 282 283 283 284 284 284 284 285 285 285 286 287 287 288 289 289 290 290 290 290 290 291 291 291 291 292 292 293 293 294 294 294 295 295 296 296 297 297 298 299 300 300 301 302 302 302 302 302 303 303 303 304 304 305 305 306 306 307 308 309 310 310 311 312 313 313 314 315 316 316 316 316 317 317 318 318 319 319 320
278 279 279 280 281 281 282 282 283 283 283 283 284 284 284 285 286 287 287 288 288 289 289 289 290 290 290 291 291 291 291 292 293 293 293 294 294 294 295 295 296 296 297 298 298 299 300 301 301 301 301 301 302 302 302 303 303 303 304 304 305 305 306 307 308 308 309 309 310 311 313 313 314 315 316 316 316 316 316 317 318 318 319 319 319
279 279 280 281 281 282 282 282 282 282 283 283 283 284 285 285 286 286 287 287 287 288 288 289 289 290 290 291 291 291 292 293 293 293 293 294 294 294 295 295 296 296 297 298 298 299 300 300 300 300 300 301 301 301 302 302 302 303 303 304 305 305 306 306 307 308 308 309 310 312 313 313 314 315 316 316 316 316 316 317 318 318 319 319 319
279 279 280 281 281 281 282 282 282 282 283 283 283 284 284 285 285 286 286 286 287 287 288 289 290 290 291 291 292 292 293 293 293 293 293 293 294 294 295 295 296 297 297 298 298 298 299 299 299 299 300 300 300 300 301 301 302 302 303 304 304 305 305 306 307 307 308 309 310 312 313 313 314 315 316 317 316 316 316 317 318 318 318 318 319
278 279 279 280 280 281 281 281 282 282 282 283 283 283 284 284 285 285 286 286 287 288 289 290 290 291 292 292 292 292 292 292 292 293 293 293 294 295 295 296 296 297 297 297 297 297 298 298 298 298 299 299 299 300 300 301 301 302 303 303 304 304 305 305 306 307 308 309 311 312 313 314 315 316 316 316 316 316 316 317 317 317 317 318 318
277 278 278 279 279 279 280 280 281 281 281 281 282 283 283 284 284 285 286 287 288 289 290 290 291 291 292 292 292 292 292 292 292 293 293 294 295 295 296 296 296 296 296 296 296 296 297 297 297 298 298 298 299 299 300 300 301 301 302 302 303 303 304 305 306 307 308 310 311 312 313 314 315 316 316 316 315 316 316 317 317 317 317 317 318
277 277 278 278 279 279 280 280 281 281 282 282 283 283 284 284 285 286 287 288 289 289 290 291 291 291 292 292 292 292 292 293 294 294 294 295 295 295 295 295 295 295 295 296 296 296 296 297 297 297 297 297 298 299 299 300 300 301 301 302 303 303 305 306 307 308 309 310 311 312 313 314 315 316 316 315 315 316 316 316 316 316 316 317 317
279 279 280 280 281 281 282 282 283 283 284 284 284 285 285 286 286 287 288 288 289 290 291 291 292 292 292 293 293 293 294 294 294 295 295 295 295 295 294 294 294 295 295 295 295 296 296 296 296 296 296 297 297 298 299 300 300 301 301 302 303 304 305 306 307 308 309 311 312 313 314 314 315 315 315 315 315 315 315 315 315 316 316 316 316
282 282 283 283 283 284 284 284 285 285 285 285 285 286 286 287 287 288 289 290 291 292 292 293 293 294 294 294 294 294 295 295 294 294 294 294 294 294 294 294 294 294 294 294 294 295 295 295 295 296 296 297 297 298 299 300 300 301 302 303 304 305 306 307 307 309 310 311 312 313 314 314 315 315 315 314 314 314 314 315 315 315 315 315 315
284 284 284 285 285 285 286 286 286 286 287 287 287 288 288 289 290 290 291 292 293 293 293 294 294 294 294 294 294 294 294 294 293 293 293 293 293 293 293 293 293 293 293 293 293 294 294 295 295 296 296 297 298 298 299 300 301 302 302 303 304 305 306 307 308 309 310 311 312 313 313 314 314 315 314 314 313 313 314 314 314 314 314 314 314
285 285 286 286 286 286 287 287 287 287 288 288 289 289 290 291 291 292 292 292 293 293 293 293 293 293 293 293 293 292 292 292 292 292 292 292 292 292 292 292 292 292 292 292 293 293 294 295 296 296 297 297 298 299 299 300 301 302 302 304 305 305 306 307 308 309 310 311 312 313 313 314 314 314 313 313 312 313 313 313 313 313 314 314 314
286 287 287 287 287 288 288 288 288 289 289 289 290 290 291 291 291 292 292 292 292 292 292 292 292 292 292 291 291 291 291 291 291 291 291 291 291 291 291 291 291 291 292 293 293 294 295 296 296 296 297 297 298 299 300 301 301 302 303 304 305 305 306 307 308 309 310 311 312 312 313 313 313 312 312 312 312 312 312 312 312 313 313 313 313
287 287 287 288 288 288 288 289 289 289 289 290 290 290 290 290 291 291 291 291 291 291 291 291 291 291 290 290 290 290 290 290 290 290 290 290 290 290 290 291 291 292 293 293 294 294 295 295 296 296 297 297 298 299 300 301 301 302 303 304 304 305 306 307 308 309 310 310 311 312 312 312 312 311 311 311 311 311 311 311 311 312 312 312 312
286 286 287 287 288 288 288 289 289 289 289 289 289 289 290 290 290 290 290 290 290 289 289 289 289 289 289 289 289 289 289 289 289 289 289 289 289 290 290 291 292 292 293 293 294 294 295 295 296 296 297 297 298 299 300 300 301 302 303 303 304 305 306 307 307 308 309 310 311 311 310 310 310 310 310 310 311 310 310 310 311 311 311 311 311
286 286 287 287 287 288 288 288 288 288 288 288 288 288 289 289 289 288 288 288 288 288 287 287 287 287 287 287 287 287 287 287 287 288 288 289 290 290 291 291 291 292 292 293 293 294 294 295 295 296 296 297 298 299 299 300 301 302 302 303 304 305 305 306 307 308 309 309 310 309 309 309 309 310 310 310 310 309 309 310 310 310 310 310 310
286 287 287 287 287 287 287 287 287 287 287 287 287 287 287 287 287 287 286 286 286 286 286 286 285 285 285 285 285 286 286 286 287 288 288 289 289 290 290 290 291 291 292 292 293 293 294 294 295 295 296 297 298 298 299 300 300 301 302 303 303 304 305 306 306 307 308 308 308 308 308 308 309 309 309 309 308 308 308 309 309 309 309 309 309
287 287 287 287 287 287 287 287 286 286 286 286 285 285 285 285 285 285 285 285 284 284 284 284 284 285 285 285 285 286 286 286 287 287 288 288 288 289 289 290 290 291 291 292 292 293 293 293 294 295 295 296 297 297 298 299 300 301 302 302 303 304 304 305 306 306 307 307 307 307 307 308 308 308 308 307 307 307 308 308 308 308 308 307 307
Height
10756 10755 10753 10752 10750 10749 10748 10747 10745 10744 10743 10741 10739 10737 10734 10732 10729 10726 10723 10720 10717 10714 10711 10707 10704 10700 10697 10693 10690 10686 10682 10678 10672 10667 10662 10657 10653 10649 10644 10640 10635 10629 10624 10618 10613 10608 10603 10597 10591 10586 10580 10574 10568 10561 10555 10549 10542 10536 10530 10526 10520 10514 10513 10512 10510 10516 10515 10498 10485 10479 10470 10462 10458 10449 10443 10443 10437 10427 10418 10410 10404 10398 10389 10381 10374
10748 10746 10745 10743 10742 10740 10739 10738 10736 10734 10733 10731 10729 10726 10724 10722 10719 10716 10713 10710 10707 10704 10701 10697 10694 10690 10686 10683 10680 10676 10672 10667 10662 10657 10651 10647 10643 10638 10634 10629 10623 10617 10612 10606 10600 10595 10590 10585 10579 10574 10568 10562 10555 10548 10542 10536 10528 10521 10515 10510 10506 10499 10494 10494 10492 10493 10497 10491 10475 10466 10458 10449 10442 10435 10428 10424 10422 10418 10410 10400 10392 10385 10376 10366 10358
10739 10738 10737 10735 10734 10733 10732 10730 10728 10726 10724 10721 10719 10717 10714 10711 10708 10706 10703 10700 10697 10694 10690 10687 10683 10680 10676 10673 10669 10665 10661 10656 10651 10646 10641 10637 10632 10628 10622 10617 10611 10605 10599 10594 10588 10583 10578 10573 10567 10561 10555 10548 10542 10535 10529 10523 10515 10507 10502 10496 10491 10485 10478 10474 10474 10472 10475 10476 10466 10455 10447 10438 10428 10419 10413 10408 10401 10398 10395 10388 10379 10372 10364 10354 10345
10730 10729 10728 10727 10726 10725 10724 10722 10720 10718 10715 10713 10710 10707 10704 10702 10699 10696 10693 10690 10687 10683 10680 10676 10673 10669 10666 10662 10658 10654 10650 10645 10640 10635 10631 10626 10621 10616 10610 10605 10599 10593 10587 10581 10576 10571 10566 10560 10555 10548 10542 10534 10528 10522 10515 10508 10502 10494 10489 10484 10477 10472 10465 10458 10455 10452 10451 10453 10451 10441 10431 10423 10414 10403 10395 10393 10388 10380 10375 10370 10363 10357 10352 10343 10331
10722 10721 10720 10719 10718 10716 10715 10713 10711 10708 10706 10703 10700 10698 10695 10692 10690 10687 10684 10681 10677 10674 10670 10666 10662 10658 10655 10651 10647 10643 10639 10634 10629 10624 10620 10615 10609 10604 10598 10593 10587 10581 10575 10569 10564 10559 10553 10548 10542 10535 10529 10522 10515 10509 10502 10495 10488 10482 10476 10471 10464 10458 10452 10445 10439 10434 10430 10428 10428 10425 10416 10405 10398 10389 10377 10372 10371 10367 10363 10359 10351 10342 10337 10332 10319
10714 10713 10712 10711 10710 10708 10706 10704 10701 10699 10696 10693 10691 10688 10686 10683 10680 10677 10674 10671 10667 10663 10659 10656 10652 10648 10644 10641 10637 10633 10628 10623 10618 10613 10608 10603 10598 10592 10587 10581 10575 10569 10564 10558 10551 10546 10540 10535 10529 10523 10517 10511 10504 10497 10490 10482 10475 10469 10463 10458 10452 10445 10439 10432 10426 10420 10414 10409 10404 10403 10399 10390 10382 10376 10366 10355 10350 10345 10341 10342 10342 10333 10324 10321 10312
10707 10706 10705 10704 10702 10700 10698 10695 10692 10689 10687 10684 10681 10679 10676 10673 10670 10667 10664 10660 10656 10652 10649 10645 10641 10637 10634 10630 10626 10622 10617 10612 10607 10602 10597 10592 10586 10581 10575 10570 10564 10558 10552 10546 10539 10534 10528 10522 10516 10511 10505 10499 10493 10485 10478 10471 10463 10457 10451 10446 10440 10434 10427 10421 10414 10407 10400 10394 10387 10383 10381 10375 10366 10359 10353 10343 10335 10328 10317 10314 10319 10318 10312 10309 10302
10698 10697 10697 10695 10693 10691 10688 10685 10683 10680 10677 10675 10672 10669 10666 10663 10660 10656 10653 10649 10645 10642 10638 10635 10631 10627 10623 10620 10615 10611 10607 10601 10596 10591 10585 10581 10575 10569 10564 10558 10552 10546 10539 10533 10527 10521 10516 10510 10504 10499 10493 10486 10480 10473 10466 10460 10453 10446 10439 10434 10428 10422 10416 10409 10402 10394 10387 10379 10373 10367 10364 10360 10351 10343 10337 10329 10322 10317 10307 10296 10294 10294 10292 10291 10285
10689 10688 10687 10684 10682 10679 10677 10675 10672 10670 10667 10664 10661 10658 10655 10652 10649 10645 10641 10638 10635 10631 10628 10624 10621 10617 10612 10609 10604 10600 10595 10590 10585 10580 10574 10569 10564 10558 10552 10546 10540 10534 10527 10521 10515 10509 10503 10498 10492 10486 10480 10474 10467 10461 10454 10448 10442 10436 10428 10421 10415 10409 10403 10396 10388 10381 10374 10367 10358 10351 10347 10345 10335 10325 10321 10315 10307 10301 10294 10285 10279 10275 10270 10269 10268
10679 10677 10675 10672 10670 10668 10666 10663 10661 10658 10655 10652 10649 10647 10644 10641 10637 10634 10631 10627 10624 10621 10618 10613 10610 10606 10601 10597 10593 10589 10584 10579 10574 10569 10563 10558 10552 10546 10540 10534 10527 10522 10515 10508 10503 10497 10491 10485 10479 10473 10467 10461 10454 10447 10442 10435 10428 10422 10415 10408 10402 10395 10389 10383 10375 10366 10360 10354 10345 10334 10329 10329 10321 10308 10300 10296 10290 10281 10275 10268 10262 10258 10253 10248 10249
10666 10664 10662 10660 10658 10656 10654 10651 10648 10646 10643 10640 10638 10635 10632 10629 10626 10623 10620 10617 10614 10610 10606 10602 10598 10595 10591 10587 10582 10577 10573 10568 10562 10557 10552 10547 10541 10535 10528 10522 10516 10509 10502 10496 10490 10484 10478 10472 10466 10460 10453 10447 10441 10434 10429 10422 10415 10408 10400 10393 10386 10379 10373 10368 10362 10353 10345 10338 10331 10320 10310 10308 10304 10293 10282 10276 10272 10265 10258 10251 10241 10235 10232 10224 10220
10653 10652 10650 10648 10646 10644 10641 10639 10636 10633 10631 10628 10626 10623 10621 10618 10615 10612 10609 10606 10603 10599 10595 10592 10588 10584 10580 10575 10571 10566 10561 10556 10551 10546 10541 10535 10529 10523 10517 10511 10504 10497 10490 10485 10479 10472 10466 10459 10453 10447 10440 10434 10428 10422 10416 10408 10400 10393 10386 10379 10371 10363 10356 10350 10344 10338 10330 10324 10318 10308 10295 10288 10284 10275 10263 10256 10253 10249 10242 10235 10225 10216 10211 10204 10195
10642 10640 10637 10635 10634 10631 10629 10626 10624 10621 10619 10617 10614 10612 10610 10607 10604 10601 10598 10595 10592 10588 10584 10581 10577 10573 10569 10564 10560 10555 10550 10545 10540 10534 10529 10523 10517 10512 10506 10499 10491 10484 10478 10473 10468 10461 10454 10447 10440 10434 10427 10421 10415 10409 10403 10395 10387 10380 10373 10366 10358 10350 10342 10335 10326 10320 10314 10307 10302 10294 10282 10272 10264 10257 10246 10236 10231 10227 10221 10215 10207 10200 10195 10189 10179
10631 10628 10625 10623 10621 10618 10616 10614 10611 10609 10607 10605 10603 10601 10598 10596 10593 10590 10587 10584 10580 10577 10573 10569 10565 10561 10557 10553 10548 10544 10539 10534 10528 10522 10516 10511 10505 10499 10493 10486 10478 10471 10466 10461 10456 10449 10442 10435 10428 10421 10414 10408 10402 10397 10390 10383 10376 10370 10362 10354 10347 10338 10330 10323 10314 10306 10299 10292 10285 10279 10270 10258 10249 10240 10231 10221 10213 10206 10199 10192 10184 10177 10175 10171 10164
10619 10616 10612 10610 10607 10605 10603 10601 10599 10597 10596 10594 10592 10589 10586 10584 10581 10578 10575 10572 10569 10565 10562 10558 10554 10549 10545 10541 10536 10532 10527 10522 10516 10509 10503 10497 10492 10485 10479 10472 10464 10458 10453 10448 10442 10435 10429 10423 10416 10408 10402 10396 10390 10384 10379 10373 10366 10360 10353 10345 10337 10328 10320 10312 10304 10296 10288 10279 10270 10263 10254 10244 10234 10224 10215 10206 10198 10190 10183 10174 10163 10155 10152 10151 10148
10605 10601 10598 10596 10594 10592 10591 10590 10588 10586 10584 10582 10579 10576 10574 10571 10569 10566 10563 10560 10557 10553 10549 10545 10541 10538 10533 10529 10524 10519 10514 10509 10503 10496 10490 10483 10477 10471 10464 10458 10451 10444 10439 10433 10427 10422 10416 10410 10403 10396 10390 10384 10378 10372 10366 10361 10356 10350 10343 10336 10327 10319 10310 10301 10293 10284 10275 10266 10256 10247 10238 10228 10218 10208 10198 10189 10181 10174 10168 10162 10152 10142 10135 10131 10130
10589 10586 10584 10583 10582 10581 10580 10578 10576 10574 10571 10569 10566 10564 10561 10559 10556 10554 10551 10548 10544 10540 10537 10533 10529 10525 10520 10516 10512 10506 10501 10496 10490 10483 10476 10469 10463 10457 10451 10444 10437 10431 10424 10418 10413 10408 10402 10397 10391 10385 10379 10372 10365 10360 10354 10349 10344 10338 10333 10326 10318 10309 10300 10291 10282 10273 10263 10253 10244 10234 10224 10215 10206 10195 10184 10175 10166 10158 10152 10147 10139 10130 10121 10114 10110
10573 10572 10572 10571 10570 10570 10568 10566 10563 10561 10559 10557 10554 10551 10549 10546 10544 10541 10538 10535 10532 10528 10524 10520 10515 10511 10507 10502 10498 10493 10487 10482 10476 10469 10462 10455 10450 10444 10438 10432 10424 10417 10411 10405 10399 10393 10388 10383 10377 10371 10365 10359 10352 10347 10341 10337 10332 10326 10321 10315 10308 10299 10290 10281 10273 10264 10253 10243 10232 10222 10213 10204 10195 10185 10175 10163 10153 10143 10135 10127 10119 10111 10103 10096 10089
10560 10560 10560 10559 10558 10557 10555 10552 10550 10548 10546 10544 10541 10538 10536 10533 10530 10528 10525 10522 10519 10515 10511 10507 10502 10498 10493 10489 10484 10479 10473 10467 10461 10455 10448 10442 10437 10431 10426 10419 10412 10404 10398 10391 10385 10380 10374 10369 10363 10357 10351 10345 10339 10333 10328 10323 10318 10313 10307 10302 10295 10287 10279 10270 10262 10255 10247 10238 10227 10218 10208 10197 10187 10177 10167 10156 10144 10133 10121 10108 10097 10088 10081 10077 10072
10549 10549 10547 10546 10545 10543 10541 10539 10537 10534 10532 10530 10527 10525 10523 10520 10518 10515 10512 10509 10506 10502 10498 10493 10489 10485 10480 10475 10470 10464 10459 10453 10446 10441 10435 10429 10424 10419 10413 10406 10399 10392 10385 10378 10372 10367 10361 10355 10349 10343 10337 10331 10325 10320 10315 10309 10304 10298 10292 10286 10280 10273 10267 10259 10251 10244 10237 10230 10221 10211 10202 10192 10180 10168 10158 10148 10137 10127 10114 10099 10085 10072 10062 10058 10057
10536 10534 10533 10532 10531 10530 10528 10526 10524 10521 10519 10517 10514 10512 10510 10507 10505 10502 10499 10496 10492 10489 10485 10480 10475 10471 10465 10460 10455 10449 10443 10438 10432 10427 10422 10416 10412 10406 10401 10394 10387 10379 10373 10366 10360 10354 10348 10341 10335 10329 10323 10317 10312 10307 10301 10295 10289 10283 10277 10270 10263 10258 10252 10247 10240 10233 10226 10218 10210 10201 10192 10183 10173 10161 10149 10138 10128 10119 10109 10096 10081 10066 10051 10042 10040
10522 10521 10521 10519 10518 10517 10515 10513 10511 10508 10506 10503 10501 10499 10497 10494 10492 10489 10485 10482 10478 10474 10470 10466 10461 10456 10451 10445 10440 10434 10428 10423 10418 10413 10408 10404 10400 10394 10388 10382 10374 10367 10361 10355 10348 10342 10336 10329 10322 10316 10310 10304 10299 10294 10288 10281 10275 10269 10262 10256 10250 10244 10237 10231 10226 10220 10213 10205 10197 10189 10181 10172 10164 10154 10142 10131 10120 10110 10101 10091 10079 10065 10048 10033 10025
10509 10509 10508 10506 10505 10504 10502 10499 10497 10495 10492 10490 10487 10485 10483 10479 10477 10474 10471 10467 10464 10460 10455 10451 10446 10441 10436 10431 10426 10420 10415 10409 10404 10400 10395 10392 10387 10382 10376 10369 10362 10356 10349 10343 10337 10330 10324 10317 10310 10303 10298 10292 10286 10280 10274 10268 10262 10256 10250 10244 10237 10231 10224 10217 10211 10204 10198 10191 10183 10175 10168 10159 10151 10143 10132 10122 10111 10101 10091 10081 10071 10060 10045 10030 10019
10497 10496 10495 10493 10492 10490 10488 10486 10483 10481 10478 10476 10473 10471 10468 10465 10462 10459 10456 10452 10449 10444 10440 10435 10431 10427 10422 10417 10412 10407 10402 10396 10391 10387 10383 10378 10374 10368 10363 10357 10350 10344 10338 10331 10326 10319 10313 10306 10298 10291 10285 10279 10272 10266 10260 10254 10249 10243 10238 10232 10225 10218 10210 10203 10196 10190 10183 10176 10169 10161 10153 10145 10136 10128 10119 10109 10099 10090 10080 10068 10057 10046 10034 10022 10011
10484 10483 10482 10480 10478 10476 10474 10472 10469 10466 10464 10461 10459 10456 10453 10450 10447 10444 10441 10437 10433 10429 10425 10421 10417 10413 10409 10404 10399 10394 10389 10383 10378 10374 10370 10365 10361 10356 10350 10344 10338 10332 10326 10320 10315 10309 10302 10294 10287 10280 10273 10267 10260 10253 10247 10241 10236 10230 10224 10217 10210 10203 10196 10189 10182 10176 10169 10162 10154 10147 10139 10130 10121 10112 10104 10094 10085 10077 10069 10059 10047 10035 10022 10011 10001
10471 10470 10468 10466 10464 10462 10460 10457 10454 10452 10449 10447 10445 10442 10439 10436 10433 10430 10427 10423 10419 10416 10412 10408 10404 10400 10396 10392 10387 10381 10375 10370 10366 10362 10357 10353 10349 10343 10337 10332 10326 10320 10314 10308 10303 10297 10290 10283 10276 10269 10262 10256 10248 10241 10234 10227 10221 10215 10210 10204 10197 10190 10182 10175 10168 10162 10155 10147 10140 10132 10124 10116 10108 10099 10090 10081 10072 10064 10057 10050 10041 10030 10016 10004 9994
10458 10456 10454 10452 10450 10447 10445 10443 10440 10438 10435 10433 10430 10428 10425 10422 10420 10417 10413 10410 10406 10403 10399 10395 10392 10388 10384 10379 10374 10368 10362 10358 10354 10350 10345 10341 10336 10331 10325 10319 10313 10307 10302 10296 10291 10285 10278 10272 10265 10258 10251 10244 10237 10229 10222 10215 10209 10203 10197 10190 10183 10176 10168 10160 10153 10147 10141 10134 10126 10119 10111 10103 10096 10088 10079 10070 10060 10051 10044 10037 10030 10023 10011 9999 9988
10444 10442 10440 10438 10436 10433 10432 10430 10427 10425 10422 10420 10417 10415 10412 10410 10407 10404 10401 10397 10394 10390 10387 10383 10379 10375 10371 10366 10361 10355 10351 10346 10342 10338 10333 10329 10324 10318 10313 10307 10300 10295 10289 10284 10278 10273 10267 10260 10253 10247 10240 10233 10225 10218 10210 10203 10196 10190 10184 10176 10169 10161 10154 10146 10139 10132 10126 10120 10113 10107 10099 10092 10085 10078 10069 10059 10049 10040 10032 10025 10018 10012 10003 9992 9982
10431 10429 10427 10425 10422 10420 10418 10416 10414 10412 10409 10407 10405 10402 10400 10397 10395 10392 10388 10385 10381 10378 10374 10370 10366 10362 10358 10353 10348 10343 10339 10335 10330 10326 10322 10317 10312 10307 10301 10294 10288 10283 10277 10272 10267 10261 10255 10248 10242 10235 10228 10221 10214 10206 10199 10191 10183 10175 10169 10162 10155 10148 10140 10133 10126 10119 10114 10108 10102 10096 10088 10081 10074 10068 10059 10049 10039 10029 10021 10013 10007 10001 9994 9984 9973
10418 10416 10414 10412 10409 10408 10406 10403 10401 10399 10397 10394 10392 10390 10387 10385 10382 10379 10376 10372 10368 10365 10362 10358 10354 10350 10346 10341 10336 10332 10328 10324 10319 10314 10310 10306 10301 10295 10289 10283 10277 10270 10264 10259 10255 10249 10242 10236 10230 10223 10216 10209 10202 10194 10186 10179 10171 10163 10155 10149 10143 10136 10128 10121 10114 10108 10102 10096 10090 10084 10077 10069 10063 10056 10049 10040 10030 10019 10010 10002 9995 9989 9984 9976 9966
10405 10403 10401 10399 10397 10395 10393 10391 10389 10386 10385 10383 10380 10378 10376 10373 10369 10366 10362 10359 10356 10353 10349 10346 10341 10337 10333 10329 10325 10321 10316 10312 10307 10303 10298 10294 10289 10284 10279 10273 10266 10258 10252 10248 10243 10236 10229 10223 10217 10210 10203 10196 10189 10182 10174 10168 10160 10152 10145 10138 10131 10125 10118 10110 10103 10096 10090 10085 10079 10072 10064 10058 10051 10044 10038 10030 10021 10010 10001 9992 9985 9978 9972 9965 9958
10391 10389 10387 10386 10384 10383 10381 10379 10377 10375 10373 10370 10368 10366 10363 10360 10356 10352 10348 10346 10344 10341 10337 10333 10329 10325 10321 10317 10313 10309 10304 10299 10295 10290 10286 10281 10276 10271 10266 10261 10254 10246 10240 10235 10230 10223 10217 10210 10203 10197 10190 10183 10176 10169 10163 10156 10149 10142 10135 10127 10120 10114 10106 10099 10092 10085 10079 10074 10068 10061 10053 10046 10039 10032 10025 10018 10010 10000 9991 9983 9975 9969 9962 9955 9948
10378 10376 10374 10373 10371 10370 10368 10366 10364 10362 10360 10357 10355 10353 10350 10346 10343 10339 10336 10334 10331 10328 10324 10321 10317 10313 10310 10306 10302 10297 10291 10287 10283 10278 10273 10268 10262 10257 10252 10246 10240 10233 10227 10222 10216 10211 10204 10197 10190 10184 10177 10170 10163 10157 10151 10144 10138 10131 10124 10117 10110 10103 10095 10088 10081 10074 10068 10063 10056 10049 10042 10035 10028 10020 10013 10005 9997 9988 9980 9973 9965 9959 9952 9945 9938
10367 10365 10363 10360 10359 10357 10355 10353 10351 10349 10346 10344 10341 10339 10336 10333 10330 10327 10325 10322 10319 10315 10311 10307 10303 10300 10297 10294 10289 10284 10279 10274 10270 10265 10259 10254 10249 10243 10237 10232 10226 10220 10214 10208 10203 10197 10191 10184 10177 10171 10164 10157 10151 10145 10139 10133 10126 10120 10113 10105 10098 10091 10084 10076 10069 10062 10056 10050 10043 10037 10031 10025 10017 10009 10002 9994 9986 9977 9969 9962 9955 9949 9942 9935 9928
10355 10353 10351 10348 10346 10344 10343 10341 10339 10336 10334 10331 10329 10327 10324 10321 10318 10316 10313 10310 10307 10303 10299 10294 10290 10287 10284 10280 10275 10270 10266 10262 10257 10252 10246 10240 10235 10229 10223 10218 10212 10206 10200 10194 10189 10183 10178 10171 10164 10158 10151 10144 10139 10133 10126 10120 10114 10107 10101 10094 10086 10079 10072 10065 10058 10051 10044 10037 10031 10025 10020 10013 10006 9999 9992 9984 9975 9967 9959 9952 9946 9939 9933 9926 9919
10342 10340 10338 10335 10333 10331 10330 10328 10326 10323 10321 10318 10316 10315 10312 10309 10306 10303 10300 10297 10294 10290 10285 10281 10277 10273 10270 10266 10260 10255 10252 10249 10244 10238 10232 10225 10220 10215 10209 10203 10196 10190 10185 10179 10174 10168 10163 10157 10151 10144 10138 10132 10126 10120 10114 10108 10101 10095 10089 10082 10075 10068 10061 10053 10047 10041 10034 10026 10020 10015 10009 10001 9994 9989 9982 9973 9964 9955 9948 9942 9935 9929 9923 9917 9910
10330 10328 10326 10324 10321 10319 10317 10315 10313 10311 10308 10306 10303 10301 10299 10295 10293 10290 10287 10283 10280 10276 10272 10268 10263 10259 10255 10250 10244 10240 10238 10235 10229 10223 10217 10211 10206 10201 10194 10187 10181 10176 10170 10165 10159 10154 10150 10144 10138 10131 10125 10119 10113 10107 10101 10095 10089 10083 10076 10069 10063 10056 10049 10042 10037 10031 10023 10016 10010 10004 9997 9988 9982 9977 9971 9963 9954 9946 9938 9931 9924 9918 9912 9907 9901
10318 10317 10315 10312 10310 10308 10306 10303 10301 10298 10295 10293 10290 10287 10284 10281 10278 10276 10272 10269 10265 10262 10258 10254 10249 10244 10240 10234 10228 10225 10223 10220 10215 10209 10203 10197 10191 10186 10179 10172 10166 10161 10156 10150 10145 10140 10136 10131 10125 10118 10111 10105 10099 10093 10088 10082 10076 10070 10064 10057 10051 10044 10037 10031 10025 10019 10011 10005 9999 9993 9984 9976 9969 9964 9959 9952 9944 9936 9929 9923 9915 9908 9902 9897 9892
10307 10306 10303 10301 10299 10296 10293 10291 10288 10285 10282 10279 10275 10273 10271 10268 10264 10260 10256 10253 10250 10247 10243 10239 10235 10230 10224 10218 10213 10210 10208 10205 10200 10194 10188 10182 10176 10170 10164 10157 10151 10146 10141 10136 10131 10126 10122 10116 10110 10104 10097 10091 10085 10080 10075 10069 10063 10058 10051 10045 10039 10032 10025 10019 10013 10006 9999 9993 9987 9981 9973 9964 9957 9951 9946 9940 9933 9926 9920 9913 9907 9899 9893 9888 9883
10297 10294 10292 10290 10287 10284 10281 10279 10275 10272 10269 10265 10262 10259 10256 10253 10249 10245 10242 10239 10236 10232 10227 10223 10219 10214 10208 10202 10197 10195 10193 10189 10184 10179 10173 10167 10161 10155 10149 10143 10136 10130 10125 10120 10115 10111 10106 10101 10095 10089 10082 10076 10071 10067 10062 10056 10050 10045 10039 10033 10027 10020 10014 10009 10002 9994 9987 9982 9976 9969 9962 9954 9947 9940 9933 9926 9920 9915 9909 9903 9897 9891 9885 9879 9874
10283 10281 10279 10276 10274 10271 10268 10265 10261 10258 10254 10251 10248 10245 10241 10237 10233 10230 10227 10224 10220 10215 10211 10207 10202 10197 10191 10185 10181 10178 10176 10173 10168 10162 10157 10152 10146 10141 10135 10128 10121 10115 10109 10103 10098 10094 10089 10084 10079 10073 10067 10061 10057 10053 10049 10043 10037 10031 10025 10020 10015 10008 10002 9997 9989 9982 9976 9970 9964 9958 9950 9943 9936 9929 9922 9914 9908 9903 9898 9893 9888 9882 9876 9871 9866
10269 10267 10264 10261 10259 10256 10253 10250 10246 10243 10239 10236 10232 10228 10225 10221 10218 10214 10211 10207 10202 10198 10193 10189 10184 10179 10173 10167 10163 10161 10159 10156 10151 10146 10141 10136 10131 10125 10119 10112 10106 10100 10093 10087 10082 10077 10072 10068 10063 10057 10051 10046 10042 10039 10035 10029 10023 10017 10011 10006 10000 9995 9989 9983 9976 9969 9963 9958 9952 9945 9939 9932 9925 9919 9911 9903 9897 9892 9888 9883 9878 9872 9867 9862 9857
10253 10251 10248 10245 10243 10240 10237 10234 10230 10227 10223 10220 10216 10212 10208 10204 10200 10197 10193 10188 10184 10180 10175 10171 10166 10161 10155 10151 10147 10144 10141 10138 10133 10128 10124 10120 10115 10109 10102 10096 10090 10084 10078 10072 10067 10061 10056 10052 10046 10041 10035 10030 10026 10023 10019 10014 10008 10002 9996 9990 9985 9980 9975 9969 9963 9957 9951 9945 9939 9933 9927 9920 9914 9908 9900 9893 9887 9882 9877 9873 9868 9863 9858 9852 9848
10237 10234 10232 10229 10226 10223 10220 10217 10213 10210 10206 10203 10199 10195 10191 10186 10182 10179 10175 10171 10167 10162 10158 10154 10149 10143 10138 10134 10131 10127 10124 10119 10114 10110 10107 10103 10099 10092 10086 10080 10074 10068 10062 10057 10051 10046 10041 10035 10030 10024 10018 10013 10010 10007 10003 9998 9993 9987 9981 9975 9970 9965 9960 9955 9949 9944 9939 9933 9927 9921 9915 9909 9903 9897 9890 9883 9876 9871 9867 9862 9858 9853 9849 9843 9838
10220 10218 10215 10213 10210 10207 10203 10200 10196 10193 10189 10185 10182 10178 10173 10169 10165 10161 10157 10153 10149 10145 10140 10135 10131 10125 10121 10117 10113 10110 10107 10101 10096 10092 10089 10085 10080 10075 10069 10064 10058 10052 10046 10041 10036 10031 10025 10019 10013 10007 10001 9997 9993 9990 9987 9982 9977 9971 9966 9961 9956 9951 9946 9941 9936 9931 9927 9921 9916 9910 9904 9898 9892 9886 9880 9873 9867 9861 9857 9852 9848 9844 9840 9835 9830
10203 10201 10198 10196 10193 10190 10187 10183 10179 10176 10172 10168 10165 10161 10156 10152 10148 10144 10139 10135 10131 10126 10121 10117 10112 10108 10103 10099 10095 10092 10089 10083 10078 10074 10071 10067 10062 10057 10051 10046 10041 10035 10030 10025 10021 10015 10010 10003 9997 9990 9985 9980 9976 9974 9970 9966 9960 9956 9952 9948 9943 9938 9933 9928 9923 9918 9914 9909 9904 9899 9892 9887 9881 9876 9870 9864 9858 9852 9847 9842 9838 9834 9830 9826 9821
10186 10184 10181 10178 10175 10173 10169 10165 10162 10158 10154 10150 10146 10142 10138 10134 10129 10125 10121 10117 10113 10108 10104 10099 10095 10090 10085 10081 10077 10074 10070 10065 10061 10057 10053 10049 10044 10038 10033 10029 10023 10018 10013 10009 10004 9999 9994 9988 9982 9975 9968 9963 9960 9957 9953 9949 9944 9940 9937 9934 9929 9925 9920 9915 9910 9906 9901 9897 9892 9887 9881 9876 9870 9865 9859 9853 9848 9843 9838 9833 9828 9824 9820 9816 9812
10168 10165 10162 10159 10156 10153 10149 10146 10142 10138 10135 10130 10126 10122 10118 10114 10110 10106 10102 10098 10093 10090 10086 10082 10077 10072 10067 10063 10061 10057 10053 10048 10044 10040 10036 10031 10025 10020 10016 10012 10006 10001 9996 9992 9988 9983 9978 9973 9967 9960 9953 9948 9944 9941 9936 9932 9928 9925 9922 9918 9915 9911 9907 9901 9897 9892 9888 9884 9880 9875 9870 9865 9860 9854 9848 9842 9837 9832 9828 9824 9819 9815 9810 9807 9803
10147 10144 10141 10138 10135 10132 10128 10124 10121 10117 10114 10109 10106 10102 10098 10094 10091 10087 10083 10078 10074 10070 10066 10063 10059 10054 10050 10047 10045 10041 10036 10032 10028 10023 10018 10013 10008 10003 9999 9994 9989 9984 9980 9975 9971 9967 9962 9957 9951 9945 9939 9934 9930 9926 9920 9916 9913 9909 9906 9903 9900 9897 9893 9888 9884 9879 9876 9872 9867 9863 9858 9853 9849 9844 9838 9832 9826 9822 9818 9814 9810 9805 9801 9797 9793
10124 10121 10118 10115 10112 10109 10106 10103 10100 10096 10093 10089 10086 10082 10078 10075 10071 10068 10063 10059 10055 10051 10047 10043 10039 10035 10032 10030 10027 10023 10019 10016 10011 10006 10001 9996 9991 9987 9982 9977 9972 9968 9963 9958 9954 9950 9946 9941 9936 9931 9925 9921 9917 9912 9907 9902 9898 9895 9891 9887 9884 9882 9878 9874 9871 9867 9863 9859 9855 9850 9846 9841 9837 9832 9827 9822 9817 9812 9808 9804 9800 9796 9792 9788 9784
10101 10098 10095 10093 10090 10087 10083 10081 10078 10075 10072 10069 10066 10062 10059 10055 10051 10047 10043 10040 10036 10032 10027 10024 10020 10016 10013 10010 10007 10003 10000 9997 9993 9988 9983 9979 9974 9970 9965 9960 9956 9951 9946 9941 9937 9933 9929 9925 9921 9916 9912 9908 9903 9899 9894 9890 9885 9881 9876 9873 9869 9867 9864 9861 9858 9855 9851 9847 9842 9838 9834 9829 9825 9821 9816 9812 9807 9802 9798 9794 9790 9786 9782 9779 9775